Погода в Росасе

Испания     42°15′52″N   3°10′23″E
темп.,
°C
ветер,
м/с
пор.,
м/с
влажн.,
%
обл.,
%
осадки,
мм/ч
давл.,
гПа
погр.,
м
14 апреля, ср
ср1423:00+12з4569100 0.0 1023158
02:00+13св5759100 0.0 1022535
05:00+12св445518 0.0 1022550
08:00+11ссв44575 0.0 1022599
11:00+11св665543 0.0 1022843
14:00+12ссв66530 0.0 1022675
17:00+12св45513 0.0 1020600
20:00+13ссз22462 0.0 1020272
15 апреля, чт
чт1523:00+12ссз23481 0.0 1021181
02:00+12ссв5657100 0.0 1021567
05:00+11ссв565290 0.0 1020661
08:00+11ссв55528 0.0 1020703
11:00+12св77550 0.0 1021924
14:00+11св88565 0.0 1020744
17:00+12св67486 0.0 1018747
20:00+12ссв34482 0.0 1018471
16 апреля, пт
пт1623:00+11с465428 0.0 1019296
02:00+11ссв57545 0.0 1018656
05:00+11ссв885756 0.0 1017928
08:00+11св785662 0.0 1017794
11:00+12ссв895396 0.0 10171316
14:00+11ссв11125791 0.0 10171079
17:00+12ссв91254100 0.0 10161313
20:00+13с71048100 0.0 10161774
17 апреля, сб
сб1723:00+12ссз111449100 0.0 10171171
02:00+11ссз121448100 0.0 10161040
05:00+11ссз111349100 0.0 1015949
08:00+11ссз121547100 0.0 10151256
11:00+13ссз14164886 0.0 10151291
14:00+14с1415485 0.0 10151419
17:00+15ссз141743100 0.0 10141290
20:00+14ссз12174543 0.0 1015958
18 апреля, вс
вс1823:00+13сз11174539 0.0 10171212
02:00+13сз12175010 0.0 10171339
05:00+12ссз11165538 0.0 10171221
08:00+10ссз7135659 0.0 1017781
11:00+13ссз11154919 0.0 10181577
14:00+14ссз1416517 0.0 10181417
17:00+15ссз1317471 0.0 10171093
20:00+15ссз914475 0.0 1018601